| time (UTC) | temp F | wind direction | speed knots | gust knots | rain 1hr in | rain 24hr in | rain mn in | humidity % | barometer mb |
| 20260510080004 | 53 | 74 | 3.5 | 11.3 | 0.00 | 0.00 | 0.00 | 79 | 1017.1 |
| 20260510070004 | 51 | 54 | 2.6 | 12.2 | 0.00 | 0.00 | 0.00 | 83 | 1017.4 |
| 20260510053003 | 51 | 42 | 2.6 | 10.4 | 0.00 | 0.00 | 0.00 | 85 | 1017.5 |
| 20260510050003 | 51 | 21 | 2.6 | 8.7 | 0.00 | 0.00 | 0.00 | 85 | 1017.5 |
| 20260510030005 | 52 | 19 | 1.7 | 6.1 | 0.00 | 0.00 | 0.00 | 77 | 1017.5 |
| 20260510023005 | 52 | 328 | 0.0 | 5.2 | 0.00 | 0.00 | 0.00 | 76 | 1017.7 |
| 20260510013004 | 52 | 13 | 0.9 | 5.2 | 0.00 | 0.00 | 0.00 | 75 | 1018.0 |
| 20260510010005 | 52 | 355 | 0.9 | 7.8 | 0.00 | 0.00 | 0.00 | 74 | 1017.9 |
| 20260510003004 | 52 | 7 | 1.7 | 6.1 | 0.00 | 0.00 | 0.00 | 72 | 1017.8 |
| 20260509233004 | 53 | 89 | 1.7 | 7.0 | 0.00 | 0.00 | 0.00 | 67 | 1018.2 |
| 20260509230004 | 53 | 73 | 1.7 | 7.8 | 0.00 | 0.00 | 0.00 | 64 | 1018.2 |
| 20260509210005 | 54 | 32 | 0.9 | 4.3 | 0.00 | 0.00 | 0.00 | 60 | 1018.1 |
| 20260509203005 | 55 | 58 | 0.0 | 8.7 | 0.00 | 0.00 | 0.00 | 57 | 1017.9 |
| 20260509200004 | 57 | 44 | 0.9 | 6.1 | 0.00 | 0.00 | 0.00 | 57 | 1017.6 |
| 20260509193004 | 59 | 25 | 1.7 | 11.3 | 0.00 | 0.00 | 0.00 | 54 | 1017.4 |
| 20260509180005 | 64 | 82 | 2.6 | 13.9 | 0.00 | 0.00 | 0.00 | 53 | 1016.9 |
| 20260509170004 | 66 | 35 | 6.1 | 13.0 | 0.00 | 0.00 | 0.00 | 48 | 1016.4 |
| 20260509130004 | 68 | 101 | 7.8 | 20.0 | 0.00 | 0.00 | 0.00 | 48 | 1017.4 |
| 20260509120005 | 68 | 88 | 7.8 | 15.6 | 0.00 | 0.00 | 0.00 | 48 | 1017.8 |
| 20260509103003 | 66 | 99 | 7.8 | 14.8 | 0.00 | 0.00 | 0.00 | 49 | 1018.5 |
| 20260509100002 | 66 | 101 | 4.3 | 13.0 | 0.00 | 0.00 | 0.00 | 55 | 1018.6 |
| 20260509093004 | 66 | 77 | 6.1 | 12.2 | 0.00 | 0.00 | 0.00 | 55 | 1018.7 |